N74MA MPMG-SEGU

Flight info

Callsign N74MA
Flight time 2h 26m
Altitude 29000
Route TBG UL780 UGUPI/N0335F300
Aircraft TBM8/L-SDFGHIRWZ/SB2

Departure

Time 2026-04-21 14:47
Airport Marcos A. Gelabert International Airport (MPMG)

Arrival

Time 2026-04-21 17:13
Airport José Joaquín de Olmedo International Airport (SEGU)
Time Latitude Longitude Altitude Speed Heading
2026-04-21 14:33 8.97089 -79.55922 30 ft 0 kts 288°
2026-04-21 14:43 8.97095 -79.55928 30 ft 7 kts 353°
2026-04-21 14:43 8.97090 -79.55789 30 ft 25 kts 102°
2026-04-21 14:43 8.97055 -79.55673 29 ft 12 kts 158°
2026-04-21 14:43 8.96978 -79.55680 28 ft 10 kts 181°
2026-04-21 14:44 8.96916 -79.55687 28 ft 8 kts 185°
2026-04-21 14:44 8.96848 -79.55693 28 ft 12 kts 184°
2026-04-21 14:44 8.96740 -79.55703 28 ft 20 kts 180°
2026-04-21 14:44 8.96610 -79.55717 28 ft 10 kts 177°
2026-04-21 14:45 8.96555 -79.55720 29 ft 9 kts 182°
2026-04-21 14:45 8.96538 -79.55706 29 ft 0 kts 90°
2026-04-21 14:46 8.96540 -79.55677 28 ft 17 kts 83°
2026-04-21 14:46 8.96662 -79.55628 27 ft 38 kts 348°
2026-04-21 14:46 8.96831 -79.55605 27 ft 59 kts
2026-04-21 14:46 8.97386 -79.55546 62 ft 101 kts
2026-04-21 14:47 8.98182 -79.55427 174 ft 132 kts
2026-04-21 14:47 8.99064 -79.55270 765 ft 123 kts
2026-04-21 14:47 8.99952 -79.55156 1188 ft 132 kts
2026-04-21 14:47 9.00800 -79.54906 1819 ft 124 kts 42°
2026-04-21 14:48 9.01046 -79.54073 2346 ft 138 kts 102°
2026-04-21 14:48 9.00379 -79.53372 3120 ft 149 kts 159°
2026-04-21 14:48 8.99377 -79.53511 3802 ft 151 kts 219°
2026-04-21 14:48 8.98615 -79.54228 4339 ft 153 kts 214°
2026-04-21 14:49 8.97578 -79.54389 4813 ft 153 kts 172°
2026-04-21 14:49 8.96514 -79.54312 5382 ft 154 kts 176°
2026-04-21 14:49 8.95438 -79.54253 6011 ft 155 kts 174°
2026-04-21 14:49 8.94357 -79.54200 6586 ft 156 kts 177°
2026-04-21 14:50 8.93625 -79.54276 6904 ft 157 kts 190°
2026-04-21 14:50 8.92189 -79.54531 7545 ft 157 kts 186°
2026-04-21 14:50 8.91165 -79.54667 7935 ft 158 kts 185°
2026-04-21 14:50 8.90070 -79.54807 8398 ft 158 kts 185°
2026-04-21 14:51 8.88976 -79.54944 8861 ft 158 kts 184°
2026-04-21 14:51 8.88235 -79.55036 9172 ft 159 kts 185°
2026-04-21 14:51 8.87220 -79.55161 9615 ft 159 kts 184°
2026-04-21 14:51 8.86116 -79.55300 10075 ft 159 kts 184°
2026-04-21 14:52 8.85016 -79.55437 10483 ft 160 kts 185°
2026-04-21 14:52 8.83907 -79.55576 10892 ft 160 kts 185°
2026-04-21 14:52 8.82801 -79.55715 11293 ft 161 kts 184°
2026-04-21 14:52 8.81685 -79.55852 11706 ft 162 kts 185°
2026-04-21 14:53 8.80566 -79.55993 12115 ft 162 kts 184°
2026-04-21 14:53 8.79432 -79.56134 12540 ft 163 kts 185°
2026-04-21 14:53 8.78291 -79.56240 12957 ft 163 kts 179°
2026-04-21 14:53 8.77152 -79.56259 13377 ft 164 kts 179°
2026-04-21 14:54 8.76009 -79.56300 13793 ft 165 kts 180°
2026-04-21 14:54 8.74860 -79.56335 14151 ft 166 kts 179°
2026-04-21 14:54 8.73688 -79.56370 14515 ft 167 kts 180°
2026-04-21 14:54 8.72529 -79.56406 14859 ft 168 kts 180°
2026-04-21 14:55 8.71346 -79.56441 15219 ft 169 kts 180°
2026-04-21 14:55 8.70160 -79.56477 15582 ft 169 kts 180°
2026-04-21 14:55 8.69035 -79.56510 15918 ft 170 kts 180°
2026-04-21 14:55 8.67847 -79.56546 16272 ft 171 kts 179°
2026-04-21 14:56 8.66653 -79.56579 16619 ft 172 kts 179°
2026-04-21 14:56 8.65446 -79.56616 16969 ft 173 kts 180°
2026-04-21 14:56 8.64252 -79.56652 17319 ft 174 kts 179°
2026-04-21 14:56 8.63036 -79.56689 17667 ft 175 kts 180°
2026-04-21 14:57 8.61796 -79.56727 18021 ft 176 kts 180°
2026-04-21 14:57 8.60583 -79.56763 18351 ft 177 kts 180°
2026-04-21 14:57 8.59330 -79.56797 18642 ft 178 kts 180°
2026-04-21 14:57 8.58101 -79.56833 18931 ft 179 kts 179°
2026-04-21 14:58 8.56829 -79.56871 19219 ft 181 kts 179°
2026-04-21 14:58 8.55579 -79.56910 19502 ft 182 kts 179°
2026-04-21 14:58 8.54291 -79.56949 19792 ft 183 kts 179°
2026-04-21 14:58 8.53015 -79.56986 20077 ft 184 kts 179°
2026-04-21 14:59 8.51725 -79.57024 20366 ft 185 kts 179°
2026-04-21 14:59 8.50432 -79.57063 20653 ft 186 kts 179°
2026-04-21 14:59 8.49129 -79.57101 20935 ft 187 kts 179°
2026-04-21 14:59 8.47804 -79.57141 21221 ft 189 kts 179°
2026-04-21 15:00 8.46492 -79.57180 21508 ft 189 kts 179°
2026-04-21 15:00 8.45182 -79.57218 21780 ft 191 kts 179°
2026-04-21 15:00 8.43835 -79.57258 22062 ft 192 kts 178°
2026-04-21 15:00 8.42516 -79.57297 22332 ft 193 kts 178°
2026-04-21 15:01 8.41172 -79.57337 22611 ft 194 kts 178°
2026-04-21 15:01 8.39818 -79.57377 22888 ft 195 kts 178°
2026-04-21 15:01 8.38460 -79.57418 23167 ft 196 kts 178°
2026-04-21 15:01 8.37092 -79.57458 23433 ft 197 kts 178°
2026-04-21 15:02 8.35717 -79.57499 23684 ft 198 kts 178°
2026-04-21 15:02 8.34337 -79.57540 23912 ft 198 kts 178°
2026-04-21 15:02 8.32956 -79.57582 24141 ft 199 kts 178°
2026-04-21 15:02 8.31571 -79.57623 24366 ft 199 kts 178°
2026-04-21 15:03 8.30186 -79.57664 24598 ft 199 kts 178°
2026-04-21 15:03 8.28798 -79.57705 24821 ft 200 kts 178°
2026-04-21 15:03 8.27406 -79.57746 25048 ft 200 kts 178°
2026-04-21 15:03 8.26012 -79.57787 25273 ft 200 kts 179°
2026-04-21 15:04 8.24617 -79.57829 25495 ft 201 kts 179°
2026-04-21 15:04 8.23219 -79.57870 25716 ft 201 kts 179°
2026-04-21 15:04 8.21819 -79.57912 25936 ft 201 kts 179°
2026-04-21 15:04 8.20416 -79.57954 26159 ft 202 kts 179°
2026-04-21 15:05 8.19010 -79.57995 26376 ft 202 kts 179°
2026-04-21 15:05 8.16171 -79.58079 26817 ft 203 kts 179°
2026-04-21 15:05 8.14758 -79.58121 27031 ft 203 kts 179°
2026-04-21 15:06 8.13324 -79.58164 27244 ft 204 kts 179°
2026-04-21 15:06 8.11905 -79.58205 27456 ft 204 kts 179°
2026-04-21 15:06 8.10483 -79.58248 27664 ft 204 kts 179°
2026-04-21 15:06 8.09057 -79.58290 27872 ft 205 kts 179°
2026-04-21 15:07 8.07631 -79.58333 28075 ft 205 kts 180°
2026-04-21 15:07 8.06202 -79.58374 28280 ft 206 kts 180°
2026-04-21 15:07 8.04769 -79.58417 28482 ft 206 kts 180°
2026-04-21 15:07 8.03337 -79.58460 28684 ft 206 kts 180°
2026-04-21 15:08 8.01898 -79.58503 28877 ft 207 kts 180°
2026-04-21 15:08 8.00454 -79.58547 29024 ft 210 kts 180°
2026-04-21 15:08 7.98956 -79.58593 29031 ft 220 kts 180°
2026-04-21 15:08 7.97370 -79.58644 29041 ft 229 kts 180°
2026-04-21 15:09 7.95745 -79.58695 29038 ft 238 kts 181°
2026-04-21 15:09 7.94064 -79.58747 29035 ft 246 kts 181°
2026-04-21 15:09 7.92331 -79.58799 29041 ft 253 kts 181°
2026-04-21 15:09 7.90548 -79.58852 29035 ft 259 kts 181°
2026-04-21 15:10 7.88726 -79.58908 29036 ft 265 kts 181°
2026-04-21 15:10 7.86864 -79.58965 29039 ft 270 kts 181°
2026-04-21 15:10 7.84967 -79.59023 29035 ft 275 kts 181°
2026-04-21 15:10 7.83019 -79.59082 29040 ft 278 kts 181°
2026-04-21 15:11 7.81069 -79.59141 29038 ft 282 kts 181°
2026-04-21 15:11 7.79098 -79.59200 29039 ft 285 kts 181°
2026-04-21 15:11 7.77083 -79.59260 29033 ft 287 kts 181°
2026-04-21 15:11 7.75075 -79.59320 29027 ft 289 kts 181°
2026-04-21 15:12 7.73710 -79.59361 29029 ft 291 kts 181°
2026-04-21 15:12 7.71677 -79.59422 29024 ft 292 kts 181°
2026-04-21 15:12 7.69645 -79.59482 29019 ft 294 kts 181°
2026-04-21 15:12 7.67574 -79.59544 29021 ft 295 kts 181°
2026-04-21 15:13 7.65507 -79.59605 29025 ft 296 kts 181°
2026-04-21 15:13 7.63423 -79.59668 29021 ft 296 kts 181°
2026-04-21 15:13 7.61359 -79.59730 29021 ft 297 kts 181°
2026-04-21 15:13 7.59203 -79.59792 29024 ft 298 kts 181°
2026-04-21 15:14 7.57099 -79.59855 29022 ft 298 kts 181°
2026-04-21 15:14 7.54999 -79.59918 29017 ft 298 kts 181°
2026-04-21 15:14 7.52918 -79.59979 29019 ft 299 kts 181°
2026-04-21 15:14 7.50723 -79.60044 29020 ft 299 kts 181°
2026-04-21 15:15 7.48643 -79.60105 29020 ft 299 kts 181°
2026-04-21 15:15 7.46564 -79.60167 29017 ft 299 kts 181°
2026-04-21 15:15 7.44487 -79.60229 29016 ft 299 kts 181°
2026-04-21 15:15 7.42380 -79.60291 29019 ft 299 kts 181°
2026-04-21 15:16 7.40264 -79.60352 29024 ft 299 kts 181°
2026-04-21 15:16 7.38177 -79.60414 29021 ft 299 kts 181°
2026-04-21 15:16 7.36065 -79.60479 29019 ft 300 kts 181°
2026-04-21 15:16 7.34010 -79.60539 29019 ft 300 kts 181°
2026-04-21 15:17 7.31925 -79.60599 29018 ft 300 kts 181°
2026-04-21 15:17 7.29840 -79.60662 29021 ft 300 kts 181°
2026-04-21 15:17 7.27755 -79.60724 29019 ft 299 kts 181°
2026-04-21 15:17 7.25673 -79.60783 29020 ft 299 kts 181°
2026-04-21 15:18 7.23584 -79.60839 29022 ft 299 kts 181°
2026-04-21 15:18 7.21500 -79.60899 29019 ft 299 kts 181°
2026-04-21 15:18 7.19413 -79.60961 29021 ft 299 kts 181°
2026-04-21 15:18 7.17330 -79.61020 29019 ft 299 kts 181°
2026-04-21 15:19 7.15243 -79.61076 29015 ft 299 kts 181°
2026-04-21 15:19 7.13159 -79.61136 29018 ft 299 kts 181°
2026-04-21 15:19 7.11076 -79.61197 29021 ft 299 kts 182°
2026-04-21 15:19 7.08994 -79.61255 29023 ft 299 kts 181°
2026-04-21 15:20 7.06908 -79.61314 29014 ft 299 kts 181°
2026-04-21 15:20 7.04825 -79.61373 29014 ft 299 kts 181°
2026-04-21 15:20 7.02768 -79.61432 29015 ft 299 kts 181°
2026-04-21 15:20 7.00676 -79.61492 29016 ft 299 kts 181°
2026-04-21 15:21 6.98595 -79.61548 29012 ft 299 kts 181°
2026-04-21 15:21 6.96511 -79.61606 29014 ft 299 kts 181°
2026-04-21 15:21 6.94430 -79.61667 29018 ft 299 kts 181°
2026-04-21 15:21 6.92348 -79.61727 29015 ft 299 kts 181°
2026-04-21 15:22 6.90266 -79.61785 29013 ft 299 kts 181°
2026-04-21 15:22 6.88186 -79.61845 29017 ft 299 kts 181°
2026-04-21 15:22 6.86103 -79.61905 29018 ft 299 kts 181°
2026-04-21 15:22 6.84024 -79.61963 29020 ft 299 kts 181°
2026-04-21 15:23 6.81945 -79.62021 29014 ft 299 kts 181°
2026-04-21 15:23 6.79862 -79.62079 29014 ft 299 kts 181°
2026-04-21 15:23 6.77781 -79.62140 29018 ft 299 kts 181°
2026-04-21 15:23 6.75697 -79.62199 29018 ft 299 kts 182°
2026-04-21 15:24 6.73617 -79.62258 29019 ft 299 kts 182°
2026-04-21 15:24 6.71529 -79.62315 29016 ft 299 kts 181°
2026-04-21 15:24 6.69448 -79.62374 29017 ft 299 kts 182°
2026-04-21 15:24 6.67369 -79.62436 29015 ft 299 kts 182°
2026-04-21 15:25 6.65290 -79.62494 29014 ft 299 kts 181°
2026-04-21 15:25 6.63212 -79.62552 29015 ft 299 kts 181°
2026-04-21 15:25 6.61834 -79.62590 29012 ft 299 kts 182°
2026-04-21 15:25 6.59052 -79.62671 29014 ft 299 kts 182°
2026-04-21 15:26 6.57675 -79.62709 29012 ft 299 kts 182°
2026-04-21 15:26 6.55597 -79.62765 29014 ft 299 kts 182°
2026-04-21 15:26 6.53518 -79.62825 29013 ft 299 kts 182°
2026-04-21 15:26 6.51440 -79.62886 29016 ft 299 kts 181°
2026-04-21 15:27 6.49362 -79.62945 29014 ft 299 kts 181°
2026-04-21 15:27 6.47283 -79.63002 29015 ft 299 kts 182°
2026-04-21 15:27 6.45207 -79.63060 29013 ft 299 kts 182°
2026-04-21 15:27 6.43131 -79.63120 29013 ft 298 kts 182°
2026-04-21 15:28 6.41052 -79.63180 29016 ft 298 kts 182°
2026-04-21 15:28 6.38974 -79.63237 29013 ft 298 kts 182°
2026-04-21 15:28 6.36898 -79.63296 29011 ft 298 kts 182°
2026-04-21 15:28 6.34822 -79.63356 29015 ft 298 kts 182°
2026-04-21 15:29 6.32746 -79.63415 29016 ft 298 kts 182°
2026-04-21 15:29 6.30672 -79.63472 29015 ft 298 kts 182°
2026-04-21 15:29 6.28599 -79.63531 29018 ft 298 kts 182°
2026-04-21 15:29 6.26526 -79.63591 29017 ft 298 kts 182°
2026-04-21 15:30 6.24454 -79.63648 29017 ft 298 kts 182°
2026-04-21 15:30 6.22381 -79.63706 29015 ft 298 kts 182°
2026-04-21 15:30 6.20335 -79.63765 29016 ft 298 kts 182°
2026-04-21 15:30 6.18266 -79.63824 29018 ft 297 kts 182°
2026-04-21 15:31 6.16197 -79.63882 29017 ft 297 kts 182°
2026-04-21 15:31 6.14127 -79.63941 29014 ft 297 kts 182°
2026-04-21 15:31 6.12053 -79.63999 29020 ft 297 kts 182°
2026-04-21 15:31 6.09988 -79.64057 29016 ft 297 kts 182°
2026-04-21 15:32 6.07920 -79.64117 29016 ft 297 kts 182°
2026-04-21 15:32 6.05852 -79.64175 29015 ft 297 kts 182°
2026-04-21 15:32 6.03781 -79.64233 29013 ft 297 kts 182°
2026-04-21 15:32 6.01711 -79.64292 29016 ft 297 kts 182°
2026-04-21 15:33 5.99640 -79.64349 29017 ft 297 kts 182°
2026-04-21 15:33 5.97572 -79.64408 29015 ft 297 kts 182°
2026-04-21 15:33 5.95507 -79.64468 29019 ft 297 kts 182°
2026-04-21 15:33 5.93440 -79.64526 29016 ft 297 kts 182°
2026-04-21 15:34 5.91367 -79.64584 29015 ft 297 kts 182°
2026-04-21 15:34 5.89300 -79.64642 29017 ft 297 kts 182°
2026-04-21 15:34 5.87236 -79.64701 29016 ft 297 kts 182°
2026-04-21 15:34 5.85168 -79.64759 29015 ft 297 kts 182°
2026-04-21 15:35 5.83130 -79.64816 29013 ft 297 kts 182°
2026-04-21 15:35 5.81037 -79.64875 29012 ft 297 kts 182°
2026-04-21 15:35 5.79000 -79.64933 29013 ft 297 kts 182°
2026-04-21 15:35 5.76933 -79.64992 29013 ft 297 kts 182°
2026-04-21 15:36 5.74836 -79.65051 29015 ft 297 kts 182°
2026-04-21 15:36 5.72770 -79.65110 29012 ft 297 kts 182°
2026-04-21 15:36 5.70707 -79.65167 29014 ft 297 kts 182°
2026-04-21 15:36 5.68639 -79.65225 29015 ft 297 kts 182°
2026-04-21 15:37 5.66572 -79.65284 29015 ft 297 kts 182°
2026-04-21 15:37 5.64508 -79.65342 29016 ft 297 kts 182°
2026-04-21 15:37 5.62441 -79.65400 29016 ft 297 kts 182°
2026-04-21 15:37 5.60374 -79.65459 29014 ft 297 kts 182°
2026-04-21 15:38 5.58306 -79.65517 29013 ft 297 kts 182°
2026-04-21 15:38 5.56238 -79.65575 29013 ft 297 kts 182°
2026-04-21 15:38 5.54170 -79.65633 29014 ft 297 kts 182°
2026-04-21 15:38 5.52104 -79.65691 29018 ft 297 kts 182°
2026-04-21 15:39 5.50036 -79.65750 29015 ft 297 kts 182°
2026-04-21 15:39 5.47993 -79.65807 29014 ft 297 kts 182°
2026-04-21 15:39 5.45927 -79.65866 29016 ft 297 kts 182°
2026-04-21 15:39 5.43860 -79.65924 29015 ft 297 kts 182°
2026-04-21 15:40 5.41792 -79.65982 29018 ft 297 kts 182°
2026-04-21 15:40 5.39728 -79.66040 29015 ft 297 kts 182°
2026-04-21 15:40 5.37660 -79.66098 29013 ft 297 kts 182°
2026-04-21 15:40 5.35592 -79.66156 29012 ft 297 kts 183°
2026-04-21 15:41 5.33521 -79.66216 29011 ft 297 kts 182°
2026-04-21 15:41 5.31451 -79.66273 29012 ft 297 kts 182°
2026-04-21 15:41 5.29381 -79.66331 29013 ft 297 kts 182°
2026-04-21 15:41 5.27308 -79.66390 29015 ft 298 kts 182°
2026-04-21 15:42 5.25269 -79.66447 29014 ft 298 kts 183°
2026-04-21 15:42 5.23163 -79.66506 29016 ft 298 kts 183°
2026-04-21 15:42 5.21092 -79.66566 29015 ft 298 kts 183°
2026-04-21 15:42 5.19018 -79.66624 29014 ft 298 kts 183°
2026-04-21 15:43 5.16945 -79.66682 29012 ft 298 kts 183°
2026-04-21 15:43 5.14900 -79.66754 29013 ft 298 kts 184°
2026-04-21 15:43 5.12825 -79.66860 29016 ft 298 kts 184°
2026-04-21 15:43 5.10747 -79.66962 29013 ft 298 kts 184°
2026-04-21 15:44 5.08676 -79.67052 29014 ft 298 kts 184°
2026-04-21 15:44 5.06601 -79.67140 29014 ft 298 kts 184°
2026-04-21 15:44 5.04527 -79.67234 29015 ft 298 kts 184°
2026-04-21 15:44 5.02450 -79.67328 29011 ft 299 kts 184°
2026-04-21 15:45 5.00372 -79.67421 29013 ft 299 kts 184°
2026-04-21 15:45 4.98291 -79.67513 29013 ft 299 kts 184°
2026-04-21 15:45 4.96213 -79.67606 29015 ft 299 kts 184°
2026-04-21 15:45 4.94136 -79.67699 29013 ft 299 kts 184°
2026-04-21 15:46 4.92055 -79.67792 29013 ft 299 kts 184°
2026-04-21 15:46 4.89978 -79.67884 29014 ft 299 kts 184°
2026-04-21 15:46 4.87897 -79.67977 29013 ft 299 kts 184°
2026-04-21 15:46 4.85813 -79.68071 29015 ft 300 kts 184°
2026-04-21 15:47 4.83729 -79.68164 29015 ft 300 kts 184°
2026-04-21 15:47 4.81614 -79.68258 29014 ft 300 kts 184°
2026-04-21 15:47 4.79527 -79.68351 29015 ft 300 kts 184°
2026-04-21 15:47 4.77461 -79.68443 29017 ft 300 kts 184°
2026-04-21 15:48 4.73370 -79.68627 29012 ft 301 kts 184°
2026-04-21 15:48 4.69021 -79.68820 29012 ft 301 kts 184°
2026-04-21 15:49 4.64829 -79.69007 29059 ft 300 kts 184°
2026-04-21 15:49 4.62753 -79.69096 29183 ft 297 kts 184°
2026-04-21 15:49 4.60696 -79.69185 29299 ft 294 kts 184°
2026-04-21 15:50 4.58669 -79.69277 29418 ft 292 kts 184°
2026-04-21 15:50 4.56609 -79.69369 29537 ft 290 kts 184°
2026-04-21 15:50 4.54598 -79.69458 29660 ft 288 kts 184°
2026-04-21 15:50 4.52599 -79.69546 29784 ft 286 kts 184°
2026-04-21 15:51 4.50614 -79.69634 29910 ft 285 kts 184°
2026-04-21 15:51 4.48657 -79.69721 30025 ft 284 kts 184°
2026-04-21 15:51 4.46640 -79.69811 30142 ft 283 kts 184°
2026-04-21 15:51 4.44676 -79.69898 30249 ft 281 kts 184°
2026-04-21 15:52 4.42721 -79.69985 30350 ft 280 kts 184°
2026-04-21 15:52 4.40773 -79.70071 30456 ft 280 kts 184°
2026-04-21 15:52 4.39487 -79.70129 30527 ft 279 kts 184°
2026-04-21 15:52 4.36900 -79.70244 30667 ft 278 kts 184°
2026-04-21 15:53 4.35517 -79.70305 30745 ft 277 kts 184°
2026-04-21 15:53 4.33540 -79.70393 30858 ft 276 kts 184°
2026-04-21 15:53 4.31623 -79.70478 30963 ft 276 kts 184°
2026-04-21 15:53 4.29676 -79.70566 31008 ft 278 kts 184°
2026-04-21 15:54 4.27735 -79.70654 31013 ft 281 kts 184°
2026-04-21 15:54 4.25711 -79.70746 31013 ft 284 kts 184°
2026-04-21 15:54 4.23700 -79.70836 31013 ft 287 kts 184°
2026-04-21 15:54 4.21695 -79.70926 31011 ft 289 kts 184°
2026-04-21 15:55 4.19649 -79.71017 31012 ft 291 kts 184°
2026-04-21 15:55 4.17616 -79.71109 31012 ft 293 kts 184°
2026-04-21 15:55 4.15571 -79.71200 31012 ft 294 kts 184°
2026-04-21 15:55 4.13519 -79.71292 31013 ft 296 kts 184°
2026-04-21 15:56 4.11458 -79.71384 31011 ft 297 kts 184°
2026-04-21 15:56 4.09364 -79.71478 31011 ft 298 kts 184°
2026-04-21 15:56 4.07264 -79.71572 31014 ft 298 kts 184°
2026-04-21 15:56 4.05190 -79.71664 31013 ft 299 kts 184°
2026-04-21 15:57 4.03104 -79.71758 31012 ft 300 kts 184°
2026-04-21 15:57 4.00963 -79.71853 31011 ft 300 kts 184°
2026-04-21 15:57 3.98849 -79.71947 31013 ft 300 kts 184°
2026-04-21 15:57 3.96752 -79.72041 31013 ft 301 kts 184°
2026-04-21 15:58 3.92537 -79.72228 31011 ft 301 kts 185°
2026-04-21 15:58 3.88308 -79.72417 31012 ft 302 kts 185°
2026-04-21 15:59 3.84050 -79.72607 31009 ft 302 kts 185°
2026-04-21 15:59 3.79848 -79.72794 31012 ft 302 kts 185°
2026-04-21 16:00 3.76154 -79.72959 31016 ft 302 kts 185°
2026-04-21 16:00 3.71946 -79.73145 31011 ft 302 kts 185°
2026-04-21 16:01 3.67742 -79.73335 31008 ft 302 kts 185°
2026-04-21 16:01 3.63550 -79.73517 31009 ft 301 kts 185°
2026-04-21 16:02 3.59363 -79.73706 31012 ft 301 kts 185°
2026-04-21 16:02 3.55173 -79.73892 31013 ft 301 kts 185°
2026-04-21 16:03 3.50905 -79.74082 31011 ft 301 kts 185°
2026-04-21 16:03 3.46712 -79.74268 31009 ft 301 kts 185°
2026-04-21 16:04 3.42528 -79.74455 31014 ft 301 kts 185°
2026-04-21 16:04 3.38348 -79.74640 31014 ft 301 kts 185°
2026-04-21 16:05 3.34168 -79.74827 31010 ft 301 kts 185°
2026-04-21 16:05 3.29980 -79.75013 31007 ft 301 kts 185°
2026-04-21 16:06 3.25794 -79.75199 31011 ft 301 kts 185°
2026-04-21 16:06 3.21606 -79.75385 31005 ft 301 kts 185°
2026-04-21 16:07 3.17422 -79.75572 31006 ft 301 kts 185°
2026-04-21 16:07 3.13241 -79.75757 31006 ft 301 kts 185°
2026-04-21 16:08 3.09059 -79.75944 31008 ft 300 kts 185°
2026-04-21 16:08 3.06972 -79.76037 31008 ft 300 kts 185°
2026-04-21 16:08 3.04882 -79.76130 31007 ft 300 kts 185°
2026-04-21 16:09 3.02792 -79.76223 31009 ft 300 kts 185°
2026-04-21 16:09 3.00702 -79.76315 31007 ft 300 kts 185°
2026-04-21 16:09 2.98586 -79.76410 31010 ft 300 kts 185°
2026-04-21 16:09 2.96503 -79.76502 31011 ft 300 kts 185°
2026-04-21 16:10 2.94420 -79.76595 31003 ft 300 kts 185°
2026-04-21 16:10 2.92335 -79.76688 31004 ft 300 kts 185°
2026-04-21 16:10 2.90274 -79.76780 31008 ft 299 kts 185°
2026-04-21 16:10 2.88167 -79.76873 31007 ft 299 kts 185°
2026-04-21 16:11 2.86079 -79.76966 31004 ft 299 kts 185°
2026-04-21 16:11 2.83997 -79.77058 31004 ft 299 kts 185°
2026-04-21 16:11 2.81914 -79.77151 31006 ft 299 kts 185°
2026-04-21 16:11 2.79832 -79.77243 31004 ft 299 kts 184°
2026-04-21 16:12 2.78458 -79.77305 31005 ft 299 kts 184°
2026-04-21 16:12 2.75678 -79.77428 31007 ft 299 kts 184°
2026-04-21 16:12 2.73597 -79.77521 31006 ft 299 kts 184°
2026-04-21 16:12 2.71519 -79.77613 31009 ft 299 kts 184°
2026-04-21 16:13 2.69441 -79.77705 31008 ft 299 kts 184°
2026-04-21 16:13 2.67332 -79.77799 31006 ft 299 kts 184°
2026-04-21 16:13 2.65256 -79.77891 31007 ft 299 kts 184°
2026-04-21 16:13 2.63180 -79.77984 31007 ft 298 kts 184°
2026-04-21 16:14 2.61103 -79.78076 31007 ft 298 kts 184°
2026-04-21 16:14 2.59027 -79.78168 31006 ft 298 kts 184°
2026-04-21 16:14 2.56949 -79.78261 31004 ft 298 kts 184°
2026-04-21 16:14 2.54874 -79.78353 31004 ft 298 kts 184°
2026-04-21 16:15 2.52800 -79.78445 31001 ft 298 kts 184°
2026-04-21 16:15 2.51431 -79.78506 30999 ft 298 kts 184°
2026-04-21 16:15 2.48657 -79.78629 31004 ft 298 kts 184°
2026-04-21 16:15 2.47284 -79.78690 31004 ft 298 kts 184°
2026-04-21 16:16 2.45183 -79.78783 31002 ft 298 kts 184°
2026-04-21 16:16 2.43135 -79.78874 31003 ft 298 kts 184°
2026-04-21 16:16 2.41059 -79.78967 31005 ft 298 kts 184°
2026-04-21 16:16 2.38987 -79.79059 31004 ft 298 kts 184°
2026-04-21 16:17 2.36912 -79.79151 31002 ft 298 kts 184°
2026-04-21 16:17 2.34841 -79.79243 31004 ft 298 kts 184°
2026-04-21 16:17 2.32768 -79.79335 31003 ft 298 kts 184°
2026-04-21 16:17 2.30695 -79.79427 31005 ft 298 kts 184°
2026-04-21 16:18 2.28626 -79.79519 31004 ft 298 kts 184°
2026-04-21 16:18 2.26556 -79.79611 31005 ft 298 kts 184°
2026-04-21 16:18 2.24481 -79.79703 31003 ft 298 kts 184°
2026-04-21 16:18 2.22411 -79.79795 31004 ft 298 kts 184°
2026-04-21 16:19 2.20341 -79.79886 31006 ft 298 kts 184°
2026-04-21 16:19 2.18267 -79.79979 31004 ft 298 kts 184°
2026-04-21 16:19 2.16195 -79.80071 31004 ft 298 kts 184°
2026-04-21 16:19 2.14126 -79.80163 31002 ft 298 kts 184°
2026-04-21 16:20 2.12052 -79.80254 31002 ft 298 kts 184°
2026-04-21 16:20 2.09980 -79.80347 31001 ft 298 kts 184°
2026-04-21 16:20 2.07903 -79.80439 30999 ft 298 kts 184°
2026-04-21 16:20 2.05829 -79.80531 30999 ft 298 kts 184°
2026-04-21 16:21 2.03758 -79.80623 31000 ft 298 kts 184°
2026-04-21 16:21 2.01687 -79.80715 31000 ft 298 kts 184°
2026-04-21 16:21 1.99823 -79.80798 30995 ft 298 kts 184°
2026-04-21 16:21 1.97750 -79.80890 30997 ft 298 kts 184°
2026-04-21 16:22 1.95680 -79.80981 30996 ft 298 kts 184°
2026-04-21 16:22 1.93604 -79.81073 30998 ft 298 kts 184°
2026-04-21 16:22 1.91532 -79.81165 30996 ft 298 kts 184°
2026-04-21 16:22 1.89462 -79.81257 30995 ft 298 kts 184°
2026-04-21 16:23 1.87392 -79.81350 30991 ft 298 kts 184°
2026-04-21 16:23 1.85320 -79.81441 30990 ft 298 kts 184°
2026-04-21 16:23 1.83247 -79.81533 30993 ft 298 kts 184°
2026-04-21 16:23 1.81179 -79.81625 30989 ft 298 kts 184°
2026-04-21 16:24 1.79077 -79.81718 30989 ft 298 kts 184°
2026-04-21 16:24 1.77036 -79.81801 30992 ft 298 kts 182°
2026-04-21 16:24 1.74960 -79.81837 30992 ft 299 kts 182°
2026-04-21 16:24 1.72884 -79.81925 30994 ft 299 kts 184°
2026-04-21 16:25 1.70777 -79.82051 30993 ft 300 kts 184°
2026-04-21 16:25 1.68720 -79.82150 30988 ft 300 kts 183°
2026-04-21 16:25 1.66630 -79.82234 30988 ft 300 kts 183°
2026-04-21 16:25 1.64540 -79.82325 30989 ft 300 kts 183°
2026-04-21 16:26 1.62449 -79.82420 30989 ft 301 kts 183°
2026-04-21 16:26 1.58259 -79.82606 30987 ft 301 kts 183°
2026-04-21 16:27 1.54072 -79.82792 30983 ft 301 kts 183°
2026-04-21 16:27 1.49846 -79.82979 30985 ft 302 kts 183°
2026-04-21 16:28 1.45623 -79.83167 30983 ft 302 kts 183°
2026-04-21 16:28 1.41426 -79.83321 30976 ft 302 kts 178°
2026-04-21 16:29 1.37240 -79.82883 30976 ft 302 kts 175°
2026-04-21 16:29 1.33090 -79.82475 30977 ft 302 kts 175°
2026-04-21 16:30 1.28901 -79.82045 30976 ft 302 kts 175°
2026-04-21 16:30 1.24734 -79.81623 30976 ft 303 kts 175°
2026-04-21 16:31 1.20503 -79.81193 30981 ft 303 kts 175°
2026-04-21 16:31 1.16321 -79.80768 30981 ft 303 kts 175°
2026-04-21 16:32 1.11979 -79.80327 30984 ft 303 kts 175°
2026-04-21 16:32 1.07873 -79.79910 30987 ft 303 kts 175°
2026-04-21 16:33 1.04469 -79.79565 30985 ft 303 kts 175°
2026-04-21 16:33 0.99945 -79.79105 30987 ft 303 kts 175°
2026-04-21 16:34 0.95720 -79.78676 30986 ft 303 kts 175°
2026-04-21 16:34 0.91495 -79.78247 30987 ft 303 kts 175°
2026-04-21 16:35 0.87288 -79.77819 30986 ft 304 kts 175°
2026-04-21 16:35 0.83083 -79.77394 30984 ft 304 kts 175°
2026-04-21 16:36 0.78805 -79.76958 30978 ft 305 kts 175°
2026-04-21 16:36 0.74582 -79.76529 30972 ft 305 kts 175°
2026-04-21 16:37 0.70352 -79.76099 30965 ft 305 kts 175°
2026-04-21 16:37 0.66123 -79.75672 30958 ft 305 kts 175°
2026-04-21 16:38 0.61897 -79.75241 30957 ft 305 kts 175°
2026-04-21 16:38 0.57662 -79.74812 30960 ft 306 kts 175°
2026-04-21 16:39 0.53398 -79.74378 30963 ft 306 kts 175°
2026-04-21 16:39 0.49156 -79.73947 30967 ft 306 kts 175°
2026-04-21 16:40 0.44908 -79.73516 30968 ft 307 kts 175°
2026-04-21 16:40 0.40664 -79.73085 30971 ft 307 kts 175°
2026-04-21 16:41 0.36414 -79.72653 30976 ft 307 kts 175°
2026-04-21 16:41 0.32162 -79.72221 30982 ft 307 kts 175°
2026-04-21 16:42 0.27913 -79.71789 30984 ft 307 kts 176°
2026-04-21 16:42 0.23657 -79.71358 30988 ft 307 kts 176°
2026-04-21 16:43 0.19404 -79.70925 30996 ft 307 kts 176°
2026-04-21 16:43 0.15172 -79.70496 30995 ft 307 kts 176°
2026-04-21 16:44 0.10892 -79.70060 30997 ft 307 kts 176°
2026-04-21 16:44 0.06664 -79.69632 31003 ft 307 kts 176°
2026-04-21 16:45 0.02404 -79.69199 31004 ft 308 kts 176°
2026-04-21 16:45 -0.01863 -79.68767 31007 ft 307 kts 174°
2026-04-21 16:46 -0.06119 -79.68332 31013 ft 307 kts 174°
2026-04-21 16:46 -0.10370 -79.67995 31023 ft 306 kts 182°
2026-04-21 16:47 -0.14630 -79.68181 31024 ft 306 kts 181°
2026-04-21 16:47 -0.18893 -79.68333 31024 ft 306 kts 182°
2026-04-21 16:48 -0.23154 -79.68499 31027 ft 306 kts 182°
2026-04-21 16:48 -0.27416 -79.68660 31031 ft 306 kts 182°
2026-04-21 16:49 -0.31676 -79.68824 31031 ft 306 kts 182°
2026-04-21 16:49 -0.35923 -79.68985 31031 ft 306 kts 182°
2026-04-21 16:50 -0.40191 -79.69149 31034 ft 306 kts 182°
2026-04-21 16:50 -0.44510 -79.69313 31035 ft 306 kts 182°
2026-04-21 16:50 -0.46688 -79.69398 30715 ft 317 kts 182°
2026-04-21 16:51 -0.48932 -79.69488 30336 ft 327 kts 182°
2026-04-21 16:51 -0.51222 -79.69574 29927 ft 329 kts 182°
2026-04-21 16:51 -0.53518 -79.69660 29483 ft 330 kts 182°
2026-04-21 16:51 -0.55847 -79.69750 29041 ft 331 kts 183°
2026-04-21 16:52 -0.58163 -79.69839 28605 ft 333 kts 183°
2026-04-21 16:52 -0.60452 -79.69926 28181 ft 334 kts 183°
2026-04-21 16:52 -0.62019 -79.69986 27898 ft 334 kts 183°
2026-04-21 16:52 -0.65107 -79.70105 27347 ft 336 kts 183°
2026-04-21 16:53 -0.66691 -79.70166 27067 ft 336 kts 183°
2026-04-21 16:53 -0.69066 -79.70257 26656 ft 337 kts 183°
2026-04-21 16:53 -0.71412 -79.70347 26254 ft 338 kts 183°
2026-04-21 16:53 -0.73794 -79.70438 25857 ft 339 kts 183°
2026-04-21 16:54 -0.76128 -79.70528 25470 ft 340 kts 183°
2026-04-21 16:54 -0.78496 -79.70619 25087 ft 341 kts 183°
2026-04-21 16:54 -0.80874 -79.70710 24707 ft 342 kts 183°
2026-04-21 16:54 -0.83260 -79.70802 24331 ft 343 kts 183°
2026-04-21 16:55 -0.85656 -79.70894 23959 ft 344 kts 183°
2026-04-21 16:55 -0.88083 -79.70987 23585 ft 345 kts 183°
2026-04-21 16:55 -0.90483 -79.71078 23145 ft 345 kts 183°
2026-04-21 16:55 -0.92883 -79.71170 22708 ft 345 kts 184°
2026-04-21 16:56 -0.95281 -79.71263 22280 ft 345 kts 184°
2026-04-21 16:56 -0.97679 -79.71357 21857 ft 345 kts 184°
2026-04-21 16:56 -1.00074 -79.71449 21437 ft 344 kts 184°
2026-04-21 16:56 -1.02466 -79.71539 21024 ft 343 kts 184°
2026-04-21 16:57 -1.04852 -79.71631 20615 ft 342 kts 184°
2026-04-21 16:57 -1.07221 -79.71721 20215 ft 340 kts 184°
2026-04-21 16:57 -1.09578 -79.71812 19816 ft 338 kts 184°
2026-04-21 16:57 -1.11952 -79.71904 19388 ft 335 kts 184°
2026-04-21 16:58 -1.14277 -79.71995 18952 ft 333 kts 185°
2026-04-21 16:58 -1.16585 -79.72081 18528 ft 330 kts 184°
2026-04-21 16:58 -1.18873 -79.72166 18074 ft 328 kts 185°
2026-04-21 16:58 -1.21151 -79.72254 17586 ft 325 kts 185°
2026-04-21 16:59 -1.23407 -79.72340 17104 ft 323 kts 185°
2026-04-21 16:59 -1.25644 -79.72425 16630 ft 321 kts 184°
2026-04-21 16:59 -1.27871 -79.72511 16169 ft 318 kts 184°
2026-04-21 16:59 -1.30082 -79.72595 15702 ft 316 kts 184°
2026-04-21 17:00 -1.32276 -79.72677 15254 ft 315 kts 184°
2026-04-21 17:00 -1.34459 -79.72759 14807 ft 313 kts 184°
2026-04-21 17:00 -1.35898 -79.72817 14518 ft 312 kts 184°
2026-04-21 17:00 -1.38784 -79.72929 13940 ft 309 kts 184°
2026-04-21 17:01 -1.40927 -79.73008 13473 ft 307 kts 184°
2026-04-21 17:01 -1.43058 -79.73088 12987 ft 305 kts 184°
2026-04-21 17:01 -1.45178 -79.73171 12512 ft 304 kts 184°
2026-04-21 17:01 -1.47281 -79.73251 12048 ft 302 kts 183°
2026-04-21 17:02 -1.49376 -79.73341 11590 ft 300 kts 184°
2026-04-21 17:02 -1.51459 -79.73443 11134 ft 299 kts 184°
2026-04-21 17:02 -1.53535 -79.73539 10689 ft 297 kts 183°
2026-04-21 17:02 -1.55594 -79.73634 10250 ft 296 kts 183°
2026-04-21 17:03 -1.57646 -79.73724 9805 ft 295 kts 183°
2026-04-21 17:03 -1.59691 -79.73817 9328 ft 293 kts 183°
2026-04-21 17:03 -1.61721 -79.73913 8854 ft 291 kts 183°
2026-04-21 17:03 -1.63737 -79.74004 8402 ft 288 kts 183°
2026-04-21 17:04 -1.65716 -79.74090 8049 ft 282 kts 183°
2026-04-21 17:04 -1.67673 -79.74181 7580 ft 283 kts 183°
2026-04-21 17:04 -1.69636 -79.74349 7056 ft 282 kts 190°
2026-04-21 17:04 -1.71522 -79.74821 6684 ft 276 kts 197°
2026-04-21 17:05 -1.73366 -79.75278 6376 ft 271 kts 192°
2026-04-21 17:05 -1.75212 -79.75590 6058 ft 267 kts 189°
2026-04-21 17:05 -1.77038 -79.75916 5734 ft 265 kts 192°
2026-04-21 17:05 -1.78838 -79.76285 5416 ft 263 kts 192°
2026-04-21 17:06 -1.80608 -79.76639 5099 ft 258 kts 191°
2026-04-21 17:06 -1.82365 -79.76970 4854 ft 254 kts 191°
2026-04-21 17:06 -1.84085 -79.77300 4683 ft 250 kts 191°
2026-04-21 17:06 -1.85788 -79.77632 4505 ft 248 kts 191°
2026-04-21 17:07 -1.86930 -79.77853 4384 ft 246 kts 191°
2026-04-21 17:07 -1.89130 -79.78282 4152 ft 237 kts 191°
2026-04-21 17:07 -1.90737 -79.78589 3977 ft 234 kts 191°
2026-04-21 17:07 -1.92310 -79.78894 3805 ft 232 kts 191°
2026-04-21 17:08 -1.93889 -79.79201 3635 ft 230 kts 191°
2026-04-21 17:08 -1.95451 -79.79506 3470 ft 227 kts 191°
2026-04-21 17:08 -1.97005 -79.79809 3295 ft 223 kts 191°
2026-04-21 17:08 -1.98518 -79.80098 3126 ft 220 kts 191°
2026-04-21 17:09 -2.01488 -79.80675 2779 ft 215 kts 191°
2026-04-21 17:09 -2.02915 -79.81147 2609 ft 214 kts 213°
2026-04-21 17:09 -2.03967 -79.82186 2378 ft 214 kts 226°
2026-04-21 17:10 -2.05103 -79.83158 2033 ft 209 kts 220°
2026-04-21 17:10 -2.06197 -79.84041 2031 ft 184 kts 216°
2026-04-21 17:10 -2.07305 -79.84585 1606 ft 178 kts 198°
2026-04-21 17:10 -2.08451 -79.84899 1394 ft 163 kts 195°
2026-04-21 17:11 -2.09538 -79.85141 1146 ft 159 kts 193°
2026-04-21 17:11 -2.10589 -79.85486 917 ft 158 kts 202°
2026-04-21 17:11 -2.11488 -79.85927 841 ft 126 kts 207°
2026-04-21 17:11 -2.12194 -79.86304 732 ft 108 kts 208°
2026-04-21 17:12 -2.12837 -79.86694 549 ft 107 kts 209°
2026-04-21 17:12 -2.13476 -79.87059 382 ft 106 kts 207°
2026-04-21 17:12 -2.14115 -79.87432 222 ft 106 kts 207°
2026-04-21 17:12 -2.14756 -79.87795 59 ft 105 kts 206°
2026-04-21 17:13 -2.15314 -79.88124 23 ft 78 kts 208°
2026-04-21 17:13 -2.15679 -79.88328 20 ft 42 kts 210°
2026-04-21 17:13 -2.15817 -79.88410 21 ft 29 kts 214°
2026-04-21 17:13 -2.15959 -79.88490 22 ft 19 kts 208°
2026-04-21 17:14 -2.16017 -79.88575 22 ft 14 kts 295°
2026-04-21 17:14 -2.15946 -79.88590 24 ft 12 kts 31°
2026-04-21 17:14 -2.15869 -79.88547 23 ft 15 kts 30°
2026-04-21 17:14 -2.15775 -79.88493 23 ft 15 kts 30°
2026-04-21 17:15 -2.15732 -79.88505 23 ft 5 kts 301°
2026-04-21 17:15 -2.15715 -79.88534 23 ft 5 kts 300°
2026-04-21 17:15 -2.15709 -79.88545 23 ft 0 kts 300°